Location: Rounton
(54.4000°N, 1.3500°W)
Time: 22:03:32
(UTC+00:00)

Explorer 7 - Pass Details

Date: 08 December 2021
Orbit: 483 x 674 km, 50.3° (Epoch: 17 January)

Event Time Altitude Azimuth Distance (km) Brightness Sun altitude
Rises 10:27:53 0° 273° (W) 2,671 10.1 10.5°
Reaches altitude 10° 10:32:09 10° 229° (SW) 1,725 9.7 10.7°
Maximum altitude 10:32:40 10° 222° (SW) 1,705 9.8 10.7°
Drops below altitude 10° 10:33:11 10° 214° (SW) 1,713 9.9 10.7°
Sets 10:37:18 0° 170° (S) 2,555 12.3 10.9°
